La Crosse, WI

5:36 PM CST on November 14, 2019 (GMT -0600)
La Crosse Municipal

Weather History for KLSE - October, 2019

Change the Weather History Date:

Saturday, October 12, 2019

  Actual Average Record
Temperature  
Mean Temperature 37 °F 52 °F  
Max Temperature 41 °F 62 °F 87 °F (1995)
Min Temperature 33 °F 42 °F 21 °F (1988)
Degree Days  
Heating Degree Days 28 14  
Month to date heating degree days 107 141  
Since 1 July heating degree days 129 301  
Cooling Degree Days 0 0  
Month to date cooling degree days 4 7  
Year to date cooling degree days 950 781  
Moisture  
Dew Point 29 °F    
Average Humidity 72    
Maximum Humidity 87    
Minimum Humidity 54    
Precipitation  
Precipitation 0.08 in 0.07 in 1.28 in (1882)
Month to date precipitation 3.10 0.95  
Year to date precipitation 38.75 28.47  
Snow  
Snow T in 0.00 in 0.60 in (1909)
Month to date snowfall T 0.0  
Since 1 July snowfall T 0.0  
Snow Depth 0.00 in    
Sea Level Pressure  
Sea Level Pressure 29.77 in    
Wind  
Wind Speed 15 mph ()    
Max Wind Speed 28 mph    
Max Gust Speed 44 mph    
Visibility 7.6 miles    
Events Rain , Snow    
T = Trace of Precipitation, MM = Missing Value Source: Averaged Metar Reports

Daily Weather History Graph

Daily Weather History Graph

Search for Another Location

Airport or City:

Astronomy

Oct. 12, 2019 Rise Set
Actual Time 7:15 AM CDT 6:26 PM CDT
Civil Twilight 6:46 AM CDT 6:55 PM CDT
Nautical Twilight 6:13 AM CDT 7:28 PM CDT
Astronomical Twilight 5:39 AM CDT 8:02 PM CDT
Moon 6:26 PM CDT (10/12) 5:47 AM CDT (10/12)
Length of Visible Light 12h 09m
Length of Day
11h 11m
Waxing Gibbous, 99% of the Moon is Illuminated
Oct 12
Waxing Gibbous
Oct 13
Full
Oct 21
Last Quarter
Oct 27
New
Nov 4
First Quarter

Hourly Weather History & Observations

Time (CDT) Temp. Windchill Dew Point Humidity Pressure Visibility Wind Dir Wind Speed Gust Speed Precip Events Conditions
12:53 AM 39.0 °F 30.6 °F 25.0 °F 57% 29.88 in 10.0 mi SW 15.0 mph 25.3 mph N/A   Overcast
1:53 AM 37.9 °F 27.9 °F 24.1 °F 57% 29.88 in 10.0 mi SW 19.6 mph 27.6 mph N/A   Scattered Clouds
2:53 AM 37.0 °F 27.0 °F 24.1 °F 59% 29.87 in 10.0 mi SW 18.4 mph 32.2 mph N/A   Partly Cloudy
3:53 AM 36.0 °F 25.6 °F 23.0 °F 59% 29.86 in 10.0 mi SW 18.4 mph 28.8 mph N/A   Clear
4:53 AM 35.1 °F 26.4 °F 23.0 °F 61% 29.84 in 10.0 mi SSW 12.7 mph 26.5 mph N/A   Clear
5:53 AM 34.0 °F 24.2 °F 23.0 °F 64% 29.85 in 10.0 mi SSW 15.0 mph 25.3 mph N/A   Clear
6:53 AM 34.0 °F 23.8 °F 23.0 °F 64% 29.83 in 10.0 mi SSW 16.1 mph 23.0 mph N/A   Clear
7:53 AM 34.0 °F 23.4 °F 23.0 °F 64% 29.82 in 10.0 mi South 17.3 mph 25.3 mph N/A   Clear
8:53 AM 36.0 °F 25.3 °F 24.1 °F 62% 29.81 in 10.0 mi SSW 19.6 mph 28.8 mph N/A   Clear
9:53 AM 37.9 °F 27.9 °F 24.1 °F 57% 29.78 in 10.0 mi SSW 19.6 mph 32.2 mph N/A   Clear
10:53 AM 39.0 °F 29.6 °F 25.0 °F 57% 29.77 in 10.0 mi SW 18.4 mph 29.9 mph N/A   Overcast
11:53 AM 39.9 °F 30.2 °F 25.0 °F 55% 29.77 in 10.0 mi SW 20.7 mph 28.8 mph N/A   Overcast
12:48 PM 37.4 °F 26.9 °F 30.2 °F 75% 29.75 in 6.0 mi SSW 20.7 mph 32.2 mph 0.00 in Snow Light Snow
12:53 PM 37.9 °F 28.5 °F 30.0 °F 73% 29.77 in 6.0 mi SSW 17.3 mph 32.2 mph 0.00 in Snow Light Snow
1:49 PM 35.6 °F 25.9 °F 32.0 °F 87% 29.74 in 1.5 mi SSW 16.1 mph 28.8 mph 0.02 in Snow Light Snow
1:53 PM 37.0 °F 27.7 °F 32.0 °F 82% 29.77 in 1.5 mi SSW 16.1 mph 31.1 mph 0.02 in Snow Light Snow
1:57 PM 37.0 °F 27.0 °F 32.0 °F 82% 29.74 in 2.0 mi SSW 18.4 mph 31.1 mph 0.00 in Snow Light Snow
2:03 PM 37.0 °F 28.1 °F 32.0 °F 82% 29.74 in 3.0 mi SSW 15.0 mph 29.9 mph 0.01 in Snow Light Snow
2:24 PM 37.0 °F 27.4 °F 32.0 °F 82% 29.73 in 2.5 mi SSW 17.3 mph - 0.01 in Snow Light Snow
2:34 PM 37.0 °F 27.0 °F 32.0 °F 82% 29.74 in 2.0 mi SSW 18.4 mph 24.2 mph 0.02 in Snow Light Snow
2:41 PM 36.0 °F 26.3 °F 32.0 °F 86% 29.74 in 1.8 mi SSW 16.1 mph 27.6 mph 0.03 in Snow Light Snow
2:51 PM 37.4 °F 27.2 °F 32.0 °F 81% 29.74 in 2.5 mi SSW 19.6 mph - 0.03 in Snow Light Snow
2:53 PM 37.0 °F 27.0 °F 32.0 °F 82% 29.76 in 2.5 mi SSW 18.4 mph - 0.03 in Snow Light Snow
3:02 PM 37.0 °F 28.1 °F 33.1 °F 86% 29.74 in 2.5 mi SSW 15.0 mph 25.3 mph 0.01 in Snow Light Snow
3:51 PM 37.4 °F 28.9 °F 33.8 °F 87% 29.74 in 9.0 mi SW 13.8 mph 23.0 mph 0.03 in Rain Light Rain
3:53 PM 37.9 °F 30.5 °F 33.1 °F 83% 29.76 in 10.0 mi SSW 11.5 mph 21.9 mph 0.03 in Rain Light Rain
4:53 PM 39.0 °F 31.4 °F 32.0 °F 76% 29.75 in 10.0 mi SSW 12.7 mph - 0.00 in   Overcast
5:07 PM 39.0 °F 30.3 °F 32.0 °F 76% 29.73 in 10.0 mi SW 16.1 mph - N/A   Overcast
5:53 PM 39.0 °F 31.8 °F 30.9 °F 73% 29.76 in 10.0 mi SW 11.5 mph 24.2 mph N/A   Overcast
6:53 PM 39.0 °F 31.4 °F 30.9 °F 73% 29.76 in 10.0 mi SW 12.7 mph - 0.00 in Rain Light Rain
7:53 PM 39.9 °F 32.5 °F 30.9 °F 70% 29.76 in 10.0 mi SW 12.7 mph - 0.00 in   Overcast
8:53 PM 39.9 °F 32.9 °F 30.9 °F 70% 29.76 in 10.0 mi SW 11.5 mph - N/A   Overcast
9:53 PM 39.9 °F 32.5 °F 30.0 °F 68% 29.75 in 10.0 mi SW 12.7 mph - N/A   Overcast
10:29 PM 39.0 °F 32.3 °F 30.0 °F 70% 29.72 in 10.0 mi SW 10.4 mph 19.6 mph N/A   Overcast
10:38 PM 39.0 °F 31.8 °F 30.0 °F 70% 29.72 in 10.0 mi SW 11.5 mph 19.6 mph N/A   Overcast
10:53 PM 39.0 °F 32.3 °F 30.0 °F 70% 29.74 in 10.0 mi SW 10.4 mph 20.7 mph N/A   Overcast
11:53 PM 39.0 °F 32.3 °F 30.0 °F 70% 29.74 in 10.0 mi WSW 10.4 mph 20.7 mph N/A   Overcast